Location: Anan
(43.3550°N, 0.8171°E)
Time: 21:56:01
(UTC+00:00)

Cosmos 2360 Rocket - Pass Details

Date: 14 May 2026
Orbit: 831 x 845 km, 71.0° (Epoch: 10 June)

Event Time Altitude Azimuth Distance (km) Brightness Sun altitude
Rises 20:18:24 0° 344° (NNW) 3,414 6.3 -10.8°
Reaches altitude 10° 20:21:34 10° 2° (N) 2,475 5.2 -11.2°
Maximum altitude 20:25:39 20° 48° (NE) 1,872 3.9 -11.8°
Drops below altitude 10° 20:29:42 10° 94° (E) 2,465 4.2 -12.3°
Enters shadow 20:29:46 10° 95° (E) 2,482 4.2 -12.3°
